This demonstration page uses our WeatherBlox Daily Observations layout. Learn more.

Hourly Observations for November 12, 2018

Temp ( °F °C ) Dew Point ( °F °C ) Humidity (%) Winds ( mph kmh ) Pressure ( in mb ) Visibility ( mi km ) Precip ( " mm )
12:15 am 00:15 Clear 25 -3.8 23 -5.1 91 91 NNE 6 9 30.5 1033 10 16.09344 0 0
12:35 am 00:35 Mostly Cloudy 25 -3.7 23 -5 91 91 N 5 7 30.53 1034 10 16.09344 0 0
12:55 am 00:55 Mostly Cloudy 26 -3.4 23 -5 89 89 N 5 7 30.53 1034 10 16.09344 0 0
1:15 am 01:15 Mostly Cloudy 26 -3.3 24 -4.7 90 90 N 6 9 30.53 1034 10 16.09344 0 0
1:35 am 01:35 Partly Cloudy 26 -3.5 24 -4.7 92 92 N 7 11 30.56 1035 10 16.09344 0 0
1:55 am 01:55 Clear 26 -3.5 23 -4.8 91 91 NNE 9 15 30.56 1035 10 16.09344 0 0
2:15 am 02:15 Clear 25 -3.7 23 -5 91 91 NNE 10 17 30.56 1035 10 16.09344 0 0
2:35 am 02:35 Clear 25 -4 23 -5 93 93 NNE 12 19 30.56 1035 10 16.09344 0 0
2:55 am 02:55 Partly Cloudy 25 -4.1 23 -5.1 93 93 NNE 17 28 30.56 1035 10 16.09344 0 0
3:15 am 03:15 Mostly Cloudy 24 -4.7 21 -6.2 89 89 NNE 16 26 30.56 1035 10 16.09344 0 0
3:35 am 03:35 Mostly Cloudy 23 -5 19 -7 86 86 NNE 14 22 30.59 1036 10 16.09344 0 0
3:55 am 03:55 Mostly Cloudy 23 -5.1 19 -7.2 85 85 NNE 12 19 30.59 1036 10 16.09344 0 0
4:15 am 04:15 Partly Cloudy 22 -5.5 19 -7.1 89 89 N 12 19 30.59 1036 10 16.09344 0 0
4:35 am 04:35 Cloudy 23 -5 20 -6.7 88 88 N 12 19 30.59 1036 10 16.09344 0 0
4:55 am 04:55 Cloudy 23 -5 19 -7.1 85 85 N 12 19 30.59 1036 10 16.09344 0 0
5:15 am 05:15 Cloudy 23 -4.8 19 -7.1 84 84 N 16 26 30.59 1036 10 16.09344 0 0
5:35 am 05:35 Cloudy 24 -4.7 19 -7 84 84 N 15 24 30.59 1036 10 16.09344 0 0
5:55 am 05:55 Cloudy 24 -4.7 19 -7 84 84 N 14 22 30.59 1036 10 16.09344 0 0
6:15 am 06:15 Cloudy 24 -4.5 19 -7 83 83 N 14 22 30.62 1037 10 16.09344 0 0
6:35 am 06:35 Cloudy 24 -4.4 20 -6.9 83 83 NNW 18 30 30.62 1037 10 16.09344 0 0
6:55 am 06:55 Cloudy 21 -6 15 -9.5 77 77 NNW 17 28 30.65 1038 10 16.09344 0 0
7:15 am 07:15 Partly Cloudy 19 -7.5 13 -10.7 78 78 N 18 30 30.68 1039 10 16.09344 0 0
7:35 am 07:35 Sunny 17 -8.1 11 -11.4 77 77 NNW 16 26 30.71 1040 10 16.09344 0 0
7:55 am 07:55 Mostly Cloudy 18 -8 13 -10.8 81 81 N 17 28 30.74 1041 10 16.09344 0 0
8:15 am 08:15 Windy with Snow Likely 19 -7.5 13 -10.4 80 80 N 20 31 30.71 1040 10 16.09344 0 0
8:35 am 08:35 Windy with Snow Likely 19 -7.5 14 -10.2 81 81 N 20 31 30.77 1042 7 11.265408 0 0
8:55 am 08:55 Cloudy with Light Snow 19 -7.2 14 -10.2 79 79 N 13 20 30.74 1041 10 16.09344 0 0
9:15 am 09:15 Cloudy with Light Snow 19 -7.1 14 -10.2 79 79 N 15 24 30.74 1041 7 11.265408 0 0
9:35 am 09:35 Cloudy 19 -7.1 13 -10.7 76 76 N 15 24 30.74 1041 10 16.09344 0 0
9:55 am 09:55 Cloudy 19 -7 12 -10.9 74 74 N 18 30 30.74 1041 10 16.09344 0 0
10:15 am 10:15 Cloudy 20 -6.8 13 -10.5 75 75 N 17 28 30.74 1041 10 16.09344 0 0
10:35 am 10:35 Cloudy 20 -6.6 13 -10.7 73 73 N 16 26 30.74 1041 10 16.09344 0 0
10:55 am 10:55 Cloudy 21 -6.2 14 -10.1 74 74 NNW 18 30 30.74 1041 10 16.09344 0 0
11:15 am 11:15 Cloudy 21 -6.2 13 -10.6 71 71 N 16 26 30.74 1041 10 16.09344 0 0
11:35 am 11:35 Cloudy 21 -6.2 13 -10.6 71 71 N 16 26 30.74 1041 10 16.09344 0 0
11:55 am 11:55 Cloudy 21 -6 13 -10.3 72 72 N 16 26 30.71 1040 10 16.09344 0 0
12:15 pm 12:15 Cloudy 21 -5.9 13 -10.5 70 70 NNW 17 28 30.71 1040 10 16.09344 0 0
12:35 pm 12:35 Cloudy 22 -5.5 13 -10.3 69 69 N 15 24 30.68 1039 10 16.09344 0 0
12:55 pm 12:55 Cloudy 22 -5.5 13 -10.3 69 69 N 16 26 30.68 1039 10 16.09344 0 0
1:15 pm 13:15 Cloudy 23 -5 14 -10 68 68 NNW 16 26 30.68 1039 10 16.09344 0 0
1:35 pm 13:35 Mostly Cloudy 23 -5 14 -10.2 67 67 N 13 20 30.62 1037 10 16.09344 0 0
1:55 pm 13:55 Partly Cloudy 24 -4.5 13 -10.3 64 64 NNW 14 22 30.62 1037 10 16.09344 0 0
2:15 pm 14:15 Partly Cloudy 25 -4.1 14 -9.9 64 64 N 14 22 30.62 1037 10 16.09344 0 0
2:35 pm 14:35 Sunny 25 -4 14 -9.9 64 64 NNW 12 19 30.62 1037 10 16.09344 0 0
2:55 pm 14:55 Sunny 26 -3.6 14 -9.9 62 62 NNW 13 20 30.62 1037 10 16.09344 0 0
3:15 pm 15:15 Sunny 26 -3.4 14 -9.9 61 61 NNW 14 22 30.62 1037 10 16.09344 0 0
3:35 pm 15:35 Sunny 26 -3.2 14 -10 60 60 NNW 13 20 30.62 1037 10 16.09344 0 0
3:55 pm 15:55 Sunny 26 -3.1 14 -10 59 59 NNW 12 19 30.62 1037 10 16.09344 0 0
4:15 pm 16:15 Sunny 26 -3.1 14 -10 59 59 N 12 19 30.62 1037 10 16.09344 0 0
4:35 pm 16:35 Sunny 26 -3.3 15 -9.7 62 62 N 10 17 30.62 1037 10 16.09344 0 0
4:55 pm 16:55 Sunny 25 -3.8 14 -10.1 62 62 N 13 20 30.62 1037 10 16.09344 0 0
5:15 pm 17:15 Sunny 23 -4.9 14 -10 68 68 N 9 15 30.62 1037 10 16.09344 0 0
5:35 pm 17:35 Clear 22 -5.7 14 -10.2 71 71 N 7 11 30.65 1038 10 16.09344 0 0
5:55 pm 17:55 undefined 19 -7 13 -10.7 75 75 N 6 9 30.65 1038 N/A 0 0
6:15 pm 18:15 Clear 16 -8.9 10 -12 78 78 N 6 9 30.68 1039 10 16.09344 0 0
6:30 pm 18:30 Clear 15 -9.2 11 -11.8 82 82 N 5 7 30.68 1039 10 16.09344 0 0
6:55 pm 18:55 Clear 14 -10 10 -12.3 83 83 NNE 5 7 30.68 1039 10 16.09344 0 0
7:15 pm 19:15 Clear 16 -9 11 -11.9 80 80 Calm 30.68 1039 10 16.09344 0 0
7:35 pm 19:35 Clear 16 -8.9 11 -11.7 80 80 Calm 30.68 1039 10 16.09344 0 0
7:55 pm 19:55 Clear 15 -9.2 11 -11.5 84 84 Calm 30.68 1039 10 16.09344 0 0
8:15 pm 20:15 Clear 13 -10.4 10 -12.1 87 87 Calm 30.68 1039 10 16.09344 0 0
8:35 pm 20:35 Clear 15 -9.7 11 -11.4 88 88 Calm 30.68 1039 10 16.09344 0 0
8:55 pm 20:55 Clear 13 -10.7 10 -12.5 87 87 Calm 30.68 1039 10 16.09344 0 0
9:15 pm 21:15 Clear 11 -11.4 9 -13 88 88 Calm 30.71 1040 10 16.09344 0 0
9:35 pm 21:35 Clear 11 -11.5 8 -13.2 87 87 Calm 30.71 1040 10 16.09344 0 0
9:55 pm 21:55 Clear 10 -12.4 8 -13.6 91 91 Calm 30.71 1040 10 16.09344 0 0
10:15 pm 22:15 Clear 12 -10.9 11 -11.7 94 94 Calm 30.68 1039 10 16.09344 0 0
10:35 pm 22:35 Clear 10 -12.2 8 -13.1 93 93 Calm 30.71 1040 10 16.09344 0 0
10:55 pm 22:55 Clear 10 -12.1 9 -13 93 93 Calm 30.71 1040 10 16.09344 0 0
11:15 pm 23:15 Clear 11 -11.6 10 -12.3 95 95 SW 3 6 30.71 1040 10 16.09344 0 0
11:35 pm 23:35 Clear 12 -11.3 10 -12.1 94 94 SW 3 6 30.71 1040 10 16.09344 0 0
11:55 pm 23:55 Clear 13 -10.5 10 -12.1 88 88 Calm 30.68 1039 10 16.09344 0 0

Powered by AerisWeather